Погода Верхний Уфалей

Погода Верхний Уфалей : погода сейчас, прогноз погоды и архив. Всё, что Вы хотите узнать о погоде Верхний Уфалей!

Поиск расширенной информации на нашем сайте:

Другие новости

Новости СМИ2

Главная страница сайта

Новости сайта

03.07.2017

Напоминаем, что на нашем специализированном сайте Метеоцентр.Азия вы можете получить высокодетализированные автоматические прогнозы погоды по пунктам России, СНГ и мира в авиационном формате (включающие направление и скорость ветра, видимость, явления погоды, количество и форму облачности, нижнюю и верхнюю границу облачности).


Погода Верхний Уфалей - сегодня

Время (UTC), дата Ветер
(°,м/с) 
Видим.   Явления Облачность Т
(°С)
Тd
(°С)
f(%) Тe
(°С)
Pmin
(гПа)
dP
(гПа)
Po
(мм)
O2
(г/м3)
Тmin Tmax R s Состояние
почвы
00 21.09.17 270 (З) 20000 м    4/4 600 м 
[Sc]
+8.1 +6.6 90 +9  1020.1  729  284           
03 21.09.17 тихо ()   20000 м    10/6 600 м средняя 
[Sc|Ac As]
+7.9 +6.8 93 +8  1020.9  0.7  730  285  +6.6        влажная 
06 21.09.17 280 (З) 20000 м    10/8 600 м средняя 
[Sc|Ac As]
+11.2 +8.2 82 +11  1020.9  0.6  730  281           
09 21.09.17 290 (З) 20000 м    9/8 600 м средняя 
[Sc|Ac trans]
+12.9 +7.7 71 +13  1021  0.3  730  280           
12 21.09.17 040 (СВ) 20000 м  в посл. час ливневой дождь  10/8 600 м средняя 
[Sc|Ac As]
+9.1 +7.6 90 +9  1023.5  1.8  732  284           
15 21.09.17 020 (С) 20000 м    10/8 600 м средняя 
[Sc|Ac As]
+7.7 +6.3 91 +8  1025.2  1.3  733  286    +13.5     
18 21.09.17 050 (СВ) 20000 м    10/6 600 м средняя 
[Sc|Ac As]
+6.4 +4.8 89 +7  1026.8  1.3  734  288           
21 21.09.17 050 (СВ) 20000 м    10/6 600 м средняя 
[Sc|Ac As]
+5.7 +4.3 91 +7  1027.8  0.8  734  289           
00 22.09.17 040 (СВ) 4000 м  {ливн. осадки}  10/5 600 м средняя 
[Sc|Ac As]
+5.1 +3.4 89 +5  1029.2  1.2  735  290           
03 22.09.17 010 (С) 20000 м    10/6 600 м средняя 
[Sc|Ac As]
+5.1 +3.4 89 +5  1030.6  1.4  736  291  +4.8    0.3    влажная 
06 22.09.17 010 (С) 20000 м    10/8 600 м средняя 
[Sc|Ac As]
+7.1 +3.2 76 +7  1031  0.7  737  289           
09 22.09.17 360 (С) 20000 м    8/5 600 м средняя 
[Sc|Ac trans]
+8.7 +1.4 60 +8  1030.6  -0.2  737  287           
12 22.09.17 020 (С) 20000 м    9/9 600 м 
[Sc]
+8.7 +1.1 59 +9  1031.3  0.7  737  288           
15 22.09.17 020 (С) 20000 м    6/4 600 м средняя 
[Sc|Ac trans]
+6.1 +1.4 72 +6  1032.9  1.1  738  291    +10.1       
18 22.09.17 360 (С) 20000 м    ясно 
+2.9 +0.2 82 +4  1034.7  1.1  739  294           
21 22.09.17 тихо ()   20000 м    ясно 
-1.1 -2.1 93 -1  1036.1  0.7  739  299           
00 23.09.17 тихо ()   20000 м    9/6 600 м средняя 
[Sc|Ac trans]
-0.1 -0.9 94 -0  1036.6  0.6  740  298           
03 23.09.17 220 (ЮЗ) 20000 м    9/3 600 м средняя, верхняя 
[Sc|Ac trans|Ci sp]
+2.1 +0.8 91 +3  1036.7  0.5  740  296  -1.7        влажная 
06 23.09.17 350 (С) 20000 м    10/4 600 м средняя 
[Sc|Ac As]
+4.4 +2.3 86 +5  1036.4  0.2  740  293           
09 23.09.17 010 (С) 20000 м  в посл. час ливневой дождь  9/8 600 м средняя 
[Sc|Ac trans]
+6.2 +2.7 78 +7  1035  -1.1  740  291           
12 23.09.17 290 (З) 20000 м  {ливн. осадки}  9/8 600 м средняя 
[Sc|Ac trans]
+6.7 +1.8 71 +7  1034  -0.9  739  290           
15 23.09.17 310 (СЗ) 20000 м    9/5 600 м средняя 
[Sc|Ac trans]
+3.9 +0.9 81 +5  1034.1  -0.4  739  293    +7.1  0.6     
18 23.09.17 260 (З) 20000 м    10/4 600 м средняя 
[Sc|Ac As]
+3.3 +1.1 85 +4  1033.3  -0.8  738  294           
21 23.09.17 050 (СВ) 4000 м  слаб. ливневой дождь  10/8 600 м кучево-дожд., средняя 
[Cb calv|Ac As]
+2.4 +1.5 94 +3  1032.7  -0.7  737  294           
00 24.09.17 тихо ()   4000 м  {ливн. осадки}  10/8 600 м средняя 
[Sc|Ac As]
+2.6 +1.8 94 +3  1031.9  -0.7  737  294           
Время (UTC), дата Ветер
(°,м/с) 
Видим.   Явления Облачность Т
(°С)
Тd
(°С)
f(%) Тe
(°С)
Pmin
(гПа)
dP
(гПа)
Po
(мм)
O2
(г/м3)
Тmin Tmax R s Состояние
почвы

Для получения пояснительной информации подведите курсор к названию столбца.

ПОГОДА Верхний Уфалей - архив

Всё, что Вы хотите узнать о погоде Верхний Уфалей - удобно и подробно!

Выберите нужную дату (начиная с 1 января 2015* года) и нажмите кнопку "Найти".
Будут отображены архивные сводки погоды по пункту Верхний Уфалей, начиная с указанной даты.


Отображать данные в формате CSV (для использования в таблицах Excel)


Внимание! Наш архив погоды предназначен исключительно для личного некоммерческого использования в познавательных целях. Если Вам необходимы официальные справки о состоянии погоды (для производственных, юридических, коммерческих и т.п. целей), обращайтесь в органы Росгидромета.

*Примечание: данная дата относится к архиву по метеостанциям СССР (Россия, СНГ, Балтия).
Архив по метеостанциям Зарубежной Европы и Азии (кроме Китая) хранится 10 дней, по другим регионам земного шара (Китай, Африка, Америка, Австралия, Океания) - 1 день.

Верхний Уфалей - район местоположения метеостанции


Название, широта, долгота, высота метеостанции:
Верхний Уфалей 56.1°ш. 60.3°д. 399 м над ур. моря [Российская Федерация]

Дополнительная информация

В oтличие oт бoльшинства пoгoдных сайтoв мы публикуем пoдрoбную метеoинфoрмацию в детальнoм прoфессиoнальнoм фoрмате.

Характеристики температуры и влажнoсти вoздуха измеряются на высoте 2 м в тени вдали oт зданий и деревьев.
Скoрoсть ветра измеряется на высoте 10 м (на урoвне рoста челoвека скoрoсть ветра ниже в 1.5-2 раза). Если метеoстанция нахoдится в гoрoде или в лесу, тo скoрoсть ветра занижена на 2-4 м/с пo сравнению с oткрытым местoм. Скoрoсть ветра над акватoриями крупных рек и oзёр, а также на вершинах хoлмoв на 2-5 м/с выше, чем в oбычных услoвиях.
Атмoсфернoе давление в разных тoчках местнoсти мoжет значительнo oтличаться oт давления на метеoстанции, в зависимoсти oт услoвий рельефа (при пoдъёме на 10 м давление пoнижается примернo на 1 мм рт.ст.).